Simultaneous Nadir Overpasses (SNOs) Predictions

Prediction of SNOs between AQUA and NPP Satellite Orbit:

Table of predicted SNOs for the next 14.0 days since TLE Epoch: 11/26/2016
Index Date (AQUA) Time (AQUA) Lat,Lon (AQUA) SZA (AQUA ) Date (NPP) Time (NPP) Lat,Lon (NPP) SZA (NPP ) Distance(km) Time Diff (sec)
1 11/26/2016 20:59:15 74.81, 100.90 118.36 11/26/2016 20:58:04 74.82, 100.99 118.41 2.69 71
2 11/26/2016 21:48:20 -75.95, -88.27 62.81 11/26/2016 21:48:26 -75.96, -88.22 62.83 1.53 6
3 11/29/2016 13:15:36 75.24,-142.09 118.43 11/29/2016 13:14:50 75.24,-142.02 118.46 2.18 46
4 11/29/2016 14:04:42 -76.32, 28.76 62.70 11/29/2016 14:05:13 -76.32, 28.80 62.74 1.23 31
5 12/02/2016 05:31:56 75.70, -24.91 118.41 12/02/2016 05:31:35 75.71, -24.82 118.41 2.64 21
6 12/02/2016 06:21:04 -76.67, 145.81 62.62 12/02/2016 06:22:00 -76.67, 145.88 62.69 1.92 56
7 12/04/2016 20:59:27 -74.34, -80.25 59.79 12/04/2016 20:58:15 -74.34, -80.32 59.70 2.05 72
8 12/04/2016 21:48:24 75.75, 91.12 118.77 12/04/2016 21:48:29 75.74, 91.06 118.78 1.73 5
9 12/07/2016 13:15:41 -75.04, 37.39 60.14 12/07/2016 13:14:54 -75.05, 37.39 60.09 0.15 47




NCC Satellite Simultaneous Nadir Overpasses (SNOs) Prediction Service
